Location: ?????oe
(44.4874°N, 135.7046°E)
Time: 01:23:48
(UTC+00:00)

Cosmos 1627 Rocket - Pass Details

Date: 13 December 2025
Orbit: 951 x 1002 km, 82.9° (Epoch: 17 January)

Event Time Altitude Azimuth Distance (km) Brightness Sun altitude
Rises 20:12:51 0° 196° (SSW) 3,609 7.4 -22.7°
Reaches altitude 10° 20:15:21 10° 200° (SSW) 2,668 6.7 -22.3°
Maximum altitude 20:21:23 63° 281° (W) 1,057 4.4 -21.2°
Drops below altitude 10° 20:27:30 10° 2° (N) 2,702 6.7 -20.2°
Sets 20:30:04 0° 6° (N) 3,659 7.4 -19.7°
